Location: Ash Swamp
(41.5170°N, 74.6157°W)
Time: 06:43:15
(UTC+00:00)

Cosmos 192 - Pass Details

Date: 14 July 2020
Orbit: 702 x 712 km, 74.0° (Epoch: 04 August)

Event Time Altitude Azimuth Distance (km) Brightness Sun altitude
Rises 07:40:08 0° 338° (NNW) 3,100 8.1 -17.3°
Reaches altitude 10° 07:42:28 10° 336° (NNW) 2,177 7.2 -17.1°
Maximum altitude 07:47:20 69° 254° (WSW) 752 4.2 -16.5°
Enters shadow 07:51:28 14° 172° (S) 1,883 6.1 -16.0°
